#timestamp,LO_Frequency,Hit,StdDev 
1665979215.3,286046998.2,N
1665979235.2,286046998.4,N
1665979255.0,286046998.6,N
1665979255.9,286046998.6,N
1665979275.8,286046998.7,N
1665979295.6,286046999.0,N
1665979315.4,286046998.1,N
1665979335.3,286047001.0,N
1665979355.1,286047001.1,N
1665979375.8,286047001.2,N
1665979395.7,286047001.2,N
1665979415.5,286047001.0,N
1665979435.4,286046998.2,N
1665979455.2,286046998.1,N
1665979475.0,286046999.6,N
1665979475.9,286046999.6,N
1665979495.8,286046997.3,N
1665979515.6,286046997.4,N
1665979535.4,286046996.6,N
1665979555.3,286046999.5,N
1665979575.1,286047001.2,N
1665979595.9,286046998.4,N
1665979615.7,286046998.5,N
1665979635.5,286046999.0,N
1665979655.4,286046998.5,N
1665979675.2,286047000.6,N
1665979695.0,286047001.1,N
1665979695.9,286047001.1,N
1665979715.8,286047000.8,N
1665979735.6,286047000.8,N
1665979755.5,286046998.3,N
1665979775.3,286046998.3,N
1665979795.1,286046998.3,N
1665979815.9,286046998.3,N
1665979835.7,286047001.1,N
1665979855.6,286046998.1,N
1665979875.4,286047001.0,N
1665979895.2,286046998.5,N
1665979915.1,286047001.0,N
1665979916.0,286047001.0,N
1665979935.8,286046999.3,N
1665979955.6,286046999.1,N
1665979975.5,286046999.6,N
1665979995.3,286046996.9,N
1665980015.2,286046998.9,N
1665980035.9,286046997.1,N
1665980055.7,286046997.5,N
1665980075.6,286046995.2,Y
1665980095.4,286046996.9,P
1665980115.3,286046999.4,N
1665980135.1,286047000.9,N
1665980136.0,286047000.9,N
1665980155.8,286046998.4,N
1665980175.7,286046998.2,N
1665980195.5,286047001.2,N
1665980215.3,286046998.5,N
1665980235.2,286046998.1,N
1665980255.0,286046998.2,N
1665980255.9,286046998.2,N
1665980275.8,286046999.0,N
1665980295.6,286046998.4,N
1665980315.4,286047000.5,N
1665980335.3,286047000.1,N
1665980355.1,286046999.9,N
1665980375.8,286046998.4,N
1665980395.7,286046998.7,N
1665980415.5,286046998.1,N
1665980435.4,286046998.3,N
1665980455.2,286046998.7,N
1665980475.0,286046998.1,N
1665980475.9,286046998.1,N
1665980495.8,286047001.9,N
1665980515.6,286046999.9,N
1665980535.4,286047000.6,N
1665980555.3,286047000.4,N
1665980575.1,286047000.1,N
1665980595.9,286047000.2,N
1665980615.7,286047001.9,N
1665980635.5,286047000.6,N
1665980655.4,286046998.2,N
1665980675.2,286046998.7,N
1665980695.0,286047000.3,N
1665980695.9,286047000.3,N
1665980715.8,286047000.6,N
1665980735.6,286047000.3,N
1665980755.5,286047000.1,N
1665980775.3,286046998.1,N
1665980795.1,286047001.2,N
1665980815.9,286047001.0,N
1665980835.7,286047000.2,N
1665980855.5,286047000.2,N
1665980875.4,286046999.7,N
1665980895.2,286047000.2,N
1665980915.1,286046999.9,N
1665980916.0,286046999.9,N
1665980935.8,286047002.5,N
1665980955.6,286047002.4,N
1665980975.5,286047003.9,Y
1665980995.6,286047004.4,P
1665981015.5,286047000.2,N
1665981035.3,286047002.5,N
1665981055.1,286047004.4,N
1665981075.9,286047002.5,N
1665981095.7,286047001.6,N
1665981115.6,286047004.0,N
1665981135.4,286047001.4,N
1665981155.2,286047004.3,N
1665981175.1,286047004.4,N
1665981176.0,286047004.4,N
1665981195.8,286047002.5,N
1665981215.6,286047002.2,N
1665981235.5,286047001.9,N
1665981255.3,286047001.8,N
1665981275.2,286047001.4,N
1665981295.9,286047001.4,N
1665981315.7,286047002.6,N
1665981335.6,286047002.1,N
1665981355.4,286047002.7,N
1665981375.2,286047002.5,N
1665981395.1,286047002.2,N
1665981396.0,286047002.2,N
1665981415.8,286047004.1,Y
1665981435.7,286046999.9,P
1665981455.5,286046999.1,N
1665981475.3,286046998.8,N
1665981495.2,286046998.3,N
1665981515.0,286046998.2,N
1665981515.9,286046998.2,N
1665981535.7,286047000.0,N
1665981555.6,286047002.8,N
1665981575.4,286047002.3,N
1665981595.3,286047000.4,N
1665981615.1,286047000.7,N
1665981616.0,286047000.7,N
1665981635.8,286046998.6,N
1665981655.7,286046999.3,N
1665981675.5,286046998.3,N
1665981695.3,286046998.7,N
1665981715.2,286046999.2,N
1665981735.0,286046999.3,N
1665981735.9,286046999.3,N
1665981755.8,286046998.1,N
1665981775.6,286046999.9,N
1665981795.4,286047002.7,N
1665981815.3,286047003.6,N
1665981835.1,286047002.3,N
1665981855.9,286047002.4,N
1665981875.7,286046998.2,N
1665981895.5,286046998.1,N
1665981915.4,286046999.9,N
1665981935.2,286047002.3,N
1665981955.0,286047002.6,N
1665981955.9,286047002.6,N
1665981975.8,286046999.7,N
1665981995.6,286047000.7,N
1665982015.5,286046998.4,N
1665982035.3,286046996.5,N
1665982055.1,286046998.2,N
1665982075.9,286047002.1,N
1665982095.7,286047002.2,N
1665982115.5,286047002.4,N
1665982135.4,286047002.4,N
1665982155.2,286046999.7,N
1665982175.1,286046999.8,N
1665982176.0,286046999.8,N
1665982195.8,286047000.0,N
1665982215.6,286047002.8,N
1665982235.5,286047002.2,N
1665982255.3,286047004.0,N
1665982275.2,286047004.1,N
1665982295.9,286047003.6,N
1665982315.7,286047004.4,N
1665982335.6,286047003.7,N
1665982355.4,286047003.1,N
1665982375.3,286047004.2,N
1665982395.1,286047006.0,N
1665982396.0,286047006.0,N
1665982415.8,286047003.0,N
1665982435.7,286047006.0,N
1665982455.5,286047005.1,N
1665982475.4,286046999.8,N
1665982495.2,286046999.7,N
1665982515.0,286047004.4,N
1665982515.9,286047004.4,N
1665982535.8,286047003.6,N
1665982555.6,286047003.1,N
1665982575.4,286047005.7,N
1665982595.3,286047005.6,N
1665982615.1,286047003.5,N
1665982635.9,286047003.9,N
1665982655.7,286047002.2,N
1665982675.5,286047003.9,N
1665982695.4,286047003.5,N
1665982715.2,286047002.6,N
1665982735.0,286046999.9,N
1665982735.9,286046999.9,N
1665982755.8,286047000.8,N
1665982775.6,286047002.2,N
1665982795.5,286047001.7,N
